Wind_Speed
15 18 21 22 24 25 25 25 25 25 24 22 22 20 18 17 16 15 14 13 11 10 9 8 6 4 3 2 2 1 1 1 2 3 5 6 7 8 10 10 11 12 12 13
13 16 20 22 23 24 25 25 25 24 24 23 22 21 19 17 17 15 14 13 12 10 9 8 7 6 4 3 2 2 2 2 3 4 5 6 7 8 10 11 11 12 12 13
13 15 18 20 22 24 25 25 25 24 23 22 22 21 20 18 17 15 15 14 12 12 11 10 8 7 5 4 4 3 3 3 4 4 5 6 7 8 9 11 12 13 13 14
12 15 17 19 21 23 24 25 24 23 23 23 22 21 21 20 18 16 15 15 14 13 12 10 8 7 6 6 5 4 4 4 4 5 5 6 7 8 9 11 12 13 13 14
11 13 15 17 19 21 22 23 23 23 22 23 23 22 21 20 19 17 16 15 14 14 13 11 10 9 8 7 6 5 5 4 4 4 5 6 7 8 9 10 11 12 14 15
10 12 14 16 18 19 19 20 21 22 22 23 24 23 21 20 18 17 17 16 15 14 13 12 11 10 9 8 7 6 5 5 4 4 4 5 6 7 8 10 11 12 13 14
9 11 14 16 17 18 19 19 19 20 22 22 23 23 21 19 18 18 17 16 16 14 14 12 12 11 10 9 8 8 7 5 4 4 4 4 6 6 7 9 10 11 12 13
9 11 13 14 15 17 19 18 18 18 20 20 21 22 20 18 17 17 16 15 15 14 14 13 12 12 11 10 10 8 7 6 5 3 3 4 4 5 6 7 9 10 11 13
11 12 13 14 15 17 18 18 18 17 17 17 19 19 18 17 16 15 15 14 14 14 14 14 13 12 12 11 11 9 8 7 5 4 3 3 3 4 5 6 7 9 10 11
11 13 13 14 15 15 15 17 16 16 17 17 17 17 16 15 15 14 14 14 14 14 14 14 14 13 13 12 11 10 9 8 6 5 3 2 2 2 3 4 5 7 8 9
10 12 12 13 13 14 14 15 15 14 15 16 15 15 15 14 14 14 14 14 14 14 15 15 14 14 13 13 12 11 10 9 7 6 4 3 2 1 2 3 4 5 6 7
10 11 12 12 13 14 14 13 15 15 15 14 15 15 15 15 14 14 14 15 15 15 15 15 14 14 14 14 13 12 11 9 8 7 5 4 3 1 1 2 3 3 5 6
11 11 11 11 12 13 13 14 15 16 15 15 15 15 15 15 14 14 14 14 15 15 16 16 15 15 15 14 14 13 12 10 9 8 6 5 4 3 2 2 3 3 4 6
10 12 12 11 12 12 13 14 15 15 15 15 16 16 15 15 15 14 14 14 15 15 16 16 15 15 15 15 15 14 12 11 10 9 7 6 5 4 4 4 4 4 5 6
10 12 12 13 13 13 13 14 14 14 15 16 18 18 16 16 16 15 15 15 16 16 16 16 15 15 15 15 15 14 13 12 11 10 9 7 7 6 6 6 6 6 7 7
10 11 12 13 13 13 13 14 15 15 16 16 18 19 18 18 17 16 16 16 16 16 17 17 16 16 16 16 15 15 14 12 11 10 10 9 8 8 8 8 8 8 9 9
12 12 13 13 14 13 13 14 15 16 16 17 18 19 20 19 18 17 17 17 17 17 17 17 17 16 16 16 16 15 14 13 12 11 11 10 10 10 10 10 10 10 10 11
12 12 13 14 14 14 13 14 15 16 17 18 18 19 20 19 19 18 17 17 17 18 18 17 17 17 17 17 16 16 15 14 13 12 12 11 11 11 12 12 12 12 13 13
14 14 14 14 14 13 14 15 15 16 17 18 18 20 20 20 19 18 18 18 18 18 18 18 18 18 18 18 17 16 16 15 14 13 13 13 13 13 14 14 14 15 16 16
16 16 15 15 15 14 15 16 15 16 17 18 18 18 19 19 19 18 19 19 19 19 19 19 19 19 19 19 18 17 17 16 16 15 15 15 15 15 16 16 17 17 18 19
17 17 16 16 16 15 15 16 16 16 16 17 18 18 18 17 18 20 20 20 20 20 20 20 20 20 20 20 19 19 18 18 17 17 17 17 17 17 18 18 19 20 21 22
19 19 18 17 17 16 17 17 17 17 17 18 19 19 19 20 20 21 21 20 20 20 20 20 21 21 21 21 21 20 20 19 19 19 19 19 20 20 20 21 22 22 23 25
21 20 20 19 19 18 19 19 19 18 18 19 19 20 21 22 22 22 21 21 21 21 21 22 22 22 22 22 22 22 22 22 22 22 22 22 22 23 23 24 25 26 26 28
23 22 22 21 20 21 21 21 21 21 21 21 21 21 21 22 23 23 23 23 22 22 22 23 23 23 23 23 23 24 24 24 24 24 24 25 25 26 27 27 28 29 30 31
24 24 23 23 23 24 23 23 23 23 23 23 23 23 22 22 23 23 24 24 24 24 24 24 24 24 25 25 25 26 26 26 26 27 27 28 29 29 30 31 32 33 34 35
25 25 25 25 25 25 24 24 24 24 24 25 24 24 24 24 24 24 25 25 25 25 25 25 26 26 27 27 28 28 29 29 29 30 30 31 32 33 33 34 35 36 37 37
Wind_Direction
213 209 206 204 203 203 201 203 206 207 206 205 205 207 206 207 207 206 207 207 208 211 216 222 219 217 211 207 192 159 85 63 51 33 29 28 28 28 29 30 29 30 29 26
208 206 204 202 201 199 198 201 203 204 205 205 206 208 208 209 207 207 207 207 211 212 213 212 210 207 200 192 173 150 127 100 78 57 49 46 43 38 37 34 35 34 33 31
205 202 200 199 197 196 197 200 202 205 206 208 209 211 209 211 209 210 210 209 209 212 213 209 206 199 192 184 174 158 135 110 90 75 65 57 50 46 43 41 41 40 40 39
198 198 197 194 193 194 197 201 203 206 207 209 210 211 212 212 212 212 211 209 211 212 209 205 201 196 192 186 178 165 144 125 107 90 78 68 59 52 48 46 45 43 43 42
190 192 194 194 192 193 195 198 203 206 208 210 209 211 213 212 211 212 211 209 209 209 208 205 202 196 193 188 182 172 157 141 122 103 90 76 62 56 53 51 50 47 46 46
187 189 191 194 194 193 192 194 198 202 206 209 208 209 212 212 211 211 210 209 208 208 206 204 201 196 193 190 185 177 171 159 139 116 98 81 66 59 56 54 52 49 48 49
182 186 190 192 193 194 193 194 197 200 204 205 206 207 209 210 210 210 209 208 208 207 204 201 199 198 196 194 189 183 179 172 155 130 107 87 69 63 58 55 52 50 48 47
183 186 187 187 190 191 192 194 196 200 202 204 204 205 208 207 208 207 207 207 205 205 203 202 201 201 199 198 193 188 186 181 171 151 125 97 75 68 63 55 51 48 46 44
181 183 185 188 188 190 192 195 199 200 201 204 205 203 204 203 204 205 208 206 205 207 205 204 203 202 202 199 195 192 191 188 185 174 149 115 88 77 63 52 47 45 43 41
177 180 187 187 188 187 191 191 191 195 200 203 205 204 202 202 204 205 208 205 205 206 206 206 205 203 202 200 198 197 197 195 194 189 176 153 117 81 58 43 39 40 38 35
170 176 182 186 187 188 188 186 187 189 192 194 200 203 198 198 200 205 208 205 205 207 209 207 207 206 204 202 200 201 202 201 202 199 195 189 172 107 44 25 24 28 26 24
180 179 180 186 190 189 188 189 190 186 186 191 195 198 197 199 202 206 206 205 207 208 210 210 210 208 206 204 203 205 206 207 207 205 205 206 206 220 325 351 360 6 8 8
188 188 187 191 194 195 195 196 194 194 196 197 196 200 198 202 207 209 208 208 208 208 209 210 210 210 208 207 206 207 208 210 211 210 212 216 221 239 275 304 321 335 346 352
194 191 191 196 199 201 203 203 201 201 201 200 201 202 200 206 209 210 210 209 209 209 208 210 212 211 210 209 208 209 209 211 213 214 218 223 231 245 265 282 296 309 321 333
201 200 202 204 204 204 204 207 210 210 206 205 203 204 203 206 208 209 209 209 209 210 209 210 212 212 212 212 212 212 212 214 216 220 224 230 238 250 263 276 288 297 304 312
214 216 214 214 215 213 213 214 215 212 210 209 207 207 209 212 211 211 213 213 213 213 213 213 213 213 213 215 215 215 216 217 220 225 231 237 245 253 263 272 281 289 296 303
224 224 223 223 224 223 219 218 218 216 213 211 209 208 214 216 217 217 219 219 218 216 215 215 214 214 215 217 217 217 218 222 226 231 236 242 250 257 264 271 279 286 293 299
229 230 229 227 228 226 220 221 222 221 218 217 215 216 219 219 218 219 223 224 221 219 218 218 217 217 218 220 220 221 224 228 233 237 241 248 255 261 265 270 277 285 292 296
231 234 234 232 231 228 227 228 227 226 224 223 222 222 223 222 222 223 225 225 223 221 220 220 220 220 222 223 224 226 229 233 238 242 248 254 260 265 268 272 278 284 290 294
235 236 237 236 234 231 230 231 231 230 229 226 224 225 225 223 224 225 226 226 225 224 223 222 222 224 225 226 228 231 234 238 242 247 252 258 263 267 270 274 279 284 288 292
238 237 238 239 238 235 233 232 233 233 230 227 223 223 224 224 224 226 228 228 228 228 226 226 227 228 229 231 233 235 239 243 246 251 256 260 264 268 272 277 280 285 289 292
239 240 239 240 241 240 238 236 235 234 231 228 225 224 226 226 228 230 233 232 232 232 232 232 232 233 234 236 238 240 243 246 251 255 260 264 268 272 275 279 282 286 289 292
239 240 240 239 241 242 242 241 238 237 236 234 233 231 230 231 233 234 236 236 235 233 233 234 235 236 238 241 243 244 247 251 255 259 264 267 271 274 277 280 283 286 289 291
240 241 241 240 241 242 242 242 242 241 241 240 239 238 237 236 237 238 238 238 237 237 237 238 239 241 243 245 247 249 252 255 259 263 267 270 273 276 279 281 284 286 288 291
241 242 243 243 242 242 242 243 244 243 243 243 243 243 242 242 241 240 240 240 239 240 242 243 244 245 247 249 251 253 256 259 262 266 269 272 275 278 280 282 284 287 288 290
241 242 243 243 243 243 243 245 245 245 244 244 245 246 246 246 245 243 243 243 243 243 245 246 248 249 250 252 253 256 259 262 265 268 270 273 276 279 281 283 285 286 288 290
Height
5810 5814 5816 5820 5824 5828 5833 5837 5841 5845 5849 5853 5856 5860 5863 5865 5868 5870 5872 5874 5876 5877 5879 5880 5881 5882 5883 5883 5884 5884 5883 5883 5883 5882 5881 5880 5878 5877 5875 5872 5870 5868 5865 5863
5809 5811 5814 5817 5821 5825 5830 5834 5838 5842 5846 5850 5854 5857 5860 5863 5866 5868 5870 5872 5874 5876 5878 5879 5881 5882 5883 5883 5884 5884 5883 5883 5883 5882 5881 5880 5879 5877 5875 5873 5871 5869 5866 5864
5807 5810 5812 5815 5819 5823 5827 5832 5836 5840 5844 5848 5852 5855 5858 5861 5864 5866 5869 5871 5873 5875 5877 5878 5880 5881 5882 5883 5883 5884 5884 5883 5883 5882 5882 5881 5879 5878 5876 5874 5872 5870 5868 5865
5806 5808 5811 5814 5817 5821 5826 5830 5834 5838 5842 5845 5850 5853 5856 5859 5862 5864 5867 5869 5871 5873 5875 5877 5878 5880 5881 5882 5883 5883 5884 5884 5883 5883 5882 5881 5880 5879 5877 5875 5874 5871 5869 5867
5806 5808 5810 5813 5817 5820 5824 5828 5833 5836 5840 5844 5847 5851 5855 5856 5860 5863 5865 5867 5869 5871 5874 5875 5877 5879 5881 5882 5882 5883 5884 5884 5884 5883 5883 5882 5881 5880 5878 5877 5875 5873 5871 5869
5806 5808 5810 5813 5816 5819 5823 5827 5831 5834 5838 5842 5845 5849 5852 5855 5858 5860 5863 5865 5867 5870 5872 5874 5876 5878 5879 5881 5882 5883 5883 5884 5884 5884 5883 5883 5882 5881 5879 5878 5876 5875 5873 5871
5806 5808 5810 5813 5816 5819 5822 5826 5830 5833 5836 5839 5842 5846 5850 5852 5855 5858 5860 5863 5865 5868 5870 5872 5875 5876 5878 5880 5881 5882 5883 5884 5884 5884 5883 5883 5882 5881 5881 5879 5878 5876 5874 5872
5806 5809 5810 5813 5815 5818 5821 5825 5829 5833 5835 5838 5840 5844 5849 5850 5853 5856 5859 5861 5864 5866 5868 5871 5873 5875 5877 5879 5880 5881 5882 5883 5883 5883 5883 5883 5883 5882 5881 5880 5879 5877 5876 5874
5807 5809 5811 5812 5815 5817 5820 5823 5827 5831 5833 5836 5839 5843 5846 5849 5851 5854 5857 5859 5862 5865 5867 5869 5872 5874 5876 5877 5879 5880 5881 5882 5882 5883 5883 5883 5883 5882 5881 5881 5880 5878 5877 5875
5807 5809 5811 5812 5815 5817 5820 5822 5826 5829 5832 5835 5838 5841 5845 5847 5850 5853 5855 5858 5860 5863 5865 5868 5870 5872 5874 5875 5877 5878 5880 5881 5882 5882 5882 5882 5882 5882 5881 5881 5880 5879 5877 5876
5807 5809 5811 5813 5815 5817 5820 5823 5825 5828 5831 5834 5837 5843 5843 5846 5848 5851 5853 5856 5858 5861 5863 5866 5868 5870 5872 5873 5875 5877 5878 5879 5880 5881 5881 5882 5882 5881 5881 5881 5880 5879 5878 5876
5807 5809 5811 5813 5815 5816 5819 5822 5825 5828 5830 5833 5836 5842 5841 5844 5846 5848 5851 5854 5856 5859 5861 5863 5866 5868 5870 5871 5873 5875 5877 5878 5879 5880 5880 5881 5881 5881 5880 5880 5879 5879 5878 5876
5808 5810 5812 5813 5817 5817 5818 5821 5823 5826 5829 5831 5834 5840 5840 5842 5844 5846 5849 5851 5854 5856 5859 5861 5864 5865 5867 5869 5871 5873 5875 5876 5877 5878 5879 5879 5879 5879 5879 5879 5879 5878 5877 5876
5807 5809 5812 5814 5814 5816 5818 5820 5822 5824 5827 5830 5833 5836 5838 5840 5842 5844 5847 5849 5852 5854 5857 5859 5861 5863 5865 5867 5869 5871 5873 5874 5875 5876 5877 5877 5878 5878 5878 5878 5877 5876 5876 5875
5806 5808 5810 5811 5813 5814 5816 5818 5820 5823 5825 5828 5831 5833 5836 5838 5840 5842 5844 5847 5849 5852 5854 5857 5859 5861 5863 5865 5867 5869 5870 5872 5873 5874 5875 5875 5876 5876 5876 5876 5875 5875 5874 5873
5805 5807 5808 5810 5811 5812 5814 5816 5818 5820 5823 5826 5828 5832 5834 5835 5837 5840 5842 5844 5847 5849 5851 5854 5856 5858 5860 5862 5864 5866 5868 5869 5871 5872 5872 5873 5873 5873 5873 5873 5873 5872 5871 5870
5802 5805 5807 5808 5809 5811 5813 5815 5816 5818 5821 5823 5826 5829 5830 5832 5835 5837 5839 5842 5844 5846 5849 5851 5853 5855 5858 5860 5862 5864 5865 5866 5868 5869 5869 5870 5870 5871 5871 5870 5870 5869 5868 5867
5801 5802 5804 5806 5808 5809 5813 5812 5813 5815 5818 5820 5822 5825 5827 5829 5831 5834 5836 5839 5841 5843 5846 5848 5850 5852 5855 5857 5859 5861 5862 5863 5864 5865 5866 5867 5867 5867 5867 5867 5866 5866 5865 5864
5798 5800 5801 5803 5805 5807 5809 5809 5811 5813 5815 5817 5819 5821 5823 5826 5828 5831 5833 5835 5838 5840 5842 5845 5847 5849 5851 5853 5855 5857 5858 5860 5861 5862 5862 5863 5863 5863 5863 5863 5862 5862 5861 5860
5794 5796 5799 5800 5802 5804 5806 5806 5807 5811 5812 5813 5815 5818 5820 5823 5826 5829 5830 5832 5834 5836 5838 5841 5843 5845 5848 5849 5851 5853 5854 5856 5857 5857 5858 5858 5859 5859 5859 5858 5858 5857 5856 5855
5791 5792 5794 5796 5798 5800 5802 5802 5805 5808 5809 5810 5812 5814 5817 5819 5822 5824 5825 5828 5830 5832 5835 5837 5839 5841 5843 5845 5847 5849 5850 5851 5852 5853 5853 5854 5854 5854 5853 5853 5852 5851 5850 5849
5786 5788 5790 5792 5794 5798 5797 5799 5801 5803 5804 5806 5808 5810 5812 5815 5817 5819 5821 5823 5826 5828 5831 5833 5835 5837 5839 5840 5842 5844 5845 5846 5846 5847 5848 5848 5848 5848 5847 5847 5846 5845 5844 5842
5781 5784 5786 5788 5791 5792 5792 5794 5796 5798 5799 5801 5804 5806 5808 5810 5812 5815 5817 5819 5821 5823 5825 5827 5829 5831 5833 5835 5837 5838 5839 5840 5840 5841 5841 5842 5842 5841 5841 5840 5839 5838 5837 5835
5775 5778 5780 5782 5784 5786 5787 5789 5791 5793 5795 5797 5799 5801 5803 5805 5807 5809 5811 5814 5816 5818 5820 5822 5824 5826 5827 5829 5830 5832 5832 5833 5834 5834 5834 5834 5834 5834 5833 5833 5831 5830 5829 5827
5769 5771 5773 5776 5778 5779 5781 5783 5785 5787 5789 5791 5794 5796 5798 5800 5802 5804 5806 5808 5810 5812 5814 5816 5818 5819 5821 5822 5824 5825 5825 5826 5827 5827 5827 5827 5827 5826 5825 5824 5823 5821 5820 5818
5763 5765 5767 5769 5771 5773 5775 5777 5779 5781 5783 5785 5788 5790 5792 5794 5796 5798 5799 5801 5803 5805 5807 5809 5811 5812 5814 5815 5816 5817 5818 5818 5819 5819 5819 5818 5818 5817 5816 5815 5814 5812 5810 5808